Location: Unspecified
(41.1637°N, 0.0000°E)
Time: 12:41:03
(UTC+00:00)

nSIGHT-1 - Visible Passes

Search period start: 23 October 2019 00:00
Search period end: 02 November 2019 00:00
Orbit: 335 x 342 km, 51.6° (Epoch: 22 October)

Date Brightness Start Highest point End Pass type
(mag) Time Alt. Az. Time Alt. Az. Time Alt. Az.
23 Oct ? 05:23:46 10° NNW 05:24:32 11° N 05:25:18 10° NNE visible
24 Oct ? 05:45:23 10° NNW 05:46:51 13° NNE 05:48:20 10° NE visible
25 Oct ? 04:33:37 10° NNE 04:33:37 10° NNE 04:33:52 10° NNE visible
26 Oct ? 04:54:37 12° N 04:55:22 13° NNE 04:56:47 10° NE visible
27 Oct ? 05:15:36 12° NNW 05:17:26 19° NNE 05:19:38 10° ENE visible
28 Oct ? 05:36:35 10° NW 05:39:18 39° NNE 05:42:02 10° ESE visible
29 Oct ? 04:26:16 17° NE 04:26:16 17° NE 04:27:48 10° ENE visible
30 Oct ? 04:47:18 36° NNE 04:47:26 36° NNE 04:50:07 10° E visible
31 Oct ? 05:08:21 49° WNW 05:08:58 74° SW 05:11:48 10° SE visible
01 Nov ? 05:29:28 19° WSW 05:30:15 22° SW 05:32:32 10° S visible
